Presure
122 122 129 127 153 156 141 126 135 138 134 130 136 149 150 149 154 131 141 133 126 119 120 125 115 127 117 110 123 121 132 124 124 119 148 134 120 149 142 142 111 130 120 109 118
179 161 131 124 130 148 127 131 124 140 137 137 132 135 137 147 158 157 134 129 124 126 124 127 128 117 100 108 106 114 145 121 133 132 146 118 141 146 130 142 131 111 111 123 132
208 261 224 210 122 141 136 132 140 154 147 138 139 137 134 141 146 161 155 137 140 122 124 128 127 102 123 105 127 110 146 134 117 125 135 138 133 135 145 142 142 108 110 106 115
209 209 225 239 201 127 123 165 137 119 156 132 138 139 138 134 142 150 164 140 144 125 125 128 128 123 124 103 111 111 121 139 130 118 127 128 140 139 144 131 114 140 109 108 111
203 203 257 221 216 169 132 135 130 145 130 133 132 140 150 141 139 142 174 162 123 145 138 131 133 132 123 131 114 122 122 117 131 135 122 125 127 127 142 134 137 135 142 122 119
208 206 197 223 232 165 214 126 134 127 142 142 157 126 142 146 150 147 148 162 157 166 155 131 130 136 129 131 125 119 126 123 116 139 130 128 138 133 142 142 139 125 139 141 119
191 209 209 266 279 279 240 244 187 135 130 140 148 159 121 137 143 150 176 163 163 160 153 141 133 129 127 135 130 128 140 116 138 115 111 132 129 137 136 139 134 154 132 141 151
217 205 211 187 183 285 262 236 198 199 265 228 140 150 154 125 137 147 151 143 161 193 170 138 130 130 133 132 136 140 109 109 125 132 124 143 148 137 131 126 141 137 139 113 137
177 188 242 285 278 281 279 270 251 211 206 271 211 145 145 179 140 133 149 154 150 188 172 161 135 129 130 122 134 137 115 117 110 132 134 137 116 158 129 128 138 148 135 136 126
220 191 242 182 287 293 280 277 267 261 220 259 251 221 142 128 159 151 124 147 153 167 193 229 192 146 127 139 128 133 118 127 113 108 132 113 140 151 131 128 123 127 143 136 140
205 183 234 277 274 174 282 271 268 267 250 227 179 260 149 138 145 166 123 128 148 142 189 187 239 171 139 125 121 122 138 141 117 132 124 131 115 141 138 141 136 131 125 140 130
201 190 197 207 279 230 279 267 272 260 261 256 209 262 237 167 212 147 136 168 131 161 142 173 208 205 171 137 137 131 131 138 130 134 126 129 124 137 144 108 123 133 121 127 142
220 214 238 206 192 271 258 266 259 230 255 249 232 258 250 233 235 188 153 133 156 147 166 164 177 223 170 136 141 110 128 132 130 128 129 131 111 131 134 115 110 145 139 123 137
204 197 207 252 256 200 265 260 258 251 242 252 252 252 256 245 203 233 203 158 178 130 152 162 179 189 229 173 125 142 130 139 131 136 137 135 108 101 135 127 136 122 128 141 128
226 235 217 263 260 237 250 249 250 256 246 242 241 247 247 251 239 242 226 159 146 179 126 152 156 175 218 227 143 155 146 131 131 123 136 111 135 126 127 135 129 154 140 140 119
258 228 225 238 233 250 246 240 240 233 245 257 240 232 242 241 254 238 229 230 197 157 174 130 154 154 178 218 203 152 156 138 131 138 130 134 126 121 129 132 134 121 133 153 130
195 249 218 252 249 242 241 247 244 244 245 241 246 252 245 243 247 255 248 224 226 164 149 183 129 160 156 194 221 184 149 148 138 139 135 129 133 142 141 126 134 132 125 143 121
213 246 246 253 249 242 239 278 395 377 434 351 359 256 252 252 242 248 255 249 228 232 163 152 157 129 126 154 203 223 176 150 146 143 139 142 127 129 140 133 159 115 126 120 130
206 252 254 243 235 240 321 336 326 298 301 321 342 391 420 253 254 252 255 250 249 247 161 168 163 168 132 124 158 213 219 168 158 150 145 157 121 127 128 126 117 135 129 131 124
257 251 241 235 236 272 307 293 286 289 343 348 330 355 357 364 251 258 256 241 247 252 253 186 157 163 141 136 125 149 211 184 170 166 158 150 138 107 141 144 132 139 119 132 139
243 246 232 231 240 298 314 285 284 290 347 339 324 335 328 314 350 256 250 253 244 239 251 254 166 144 138 148 157 138 159 100 187 174 163 155 146 144 141 137 138 137 133 131 144
251 231 229 231 231 327 304 320 342 292 294 301 311 297 316 294 326 311 249 259 255 243 237 252 256 157 156 139 134 162 158 155 218 191 168 157 156 149 143 145 147 141 144 147 109
242 230 229 227 224 302 285 312 329 285 282 283 281 302 297 305 316 285 325 262 250 244 248 248 258 255 167 144 164 138 159 179 146 214 206 194 169 145 144 149 145 127 153 130 135
235 225 223 226 226 315 340 306 320 288 279 277 272 288 275 298 298 282 283 280 299 247 243 239 200 247 251 112 146 182 132 142 173 151 187 213 209 195 152 149 153 140 141 158 107
232 226 229 219 225 268 330 301 297 305 281 275 267 273 263 268 292 277 284 285 296 311 311 310 246 244 240 253 97 148 145 143 136 156 161 130 203 221 192 176 154 145 148 143 144
226 223 226 220 223 281 337 307 294 309 282 266 263 275 264 268 273 271 281 275 284 313 320 301 304 244 245 166 235 142 146 134 140 165 146 102 135 178 201 143 186 175 168 158 151
224 227 221 217 224 281 328 321 293 289 310 276 265 263 269 266 273 270 277 268 275 319 283 315 314 304 249 255 255 240 210 147 138 147 152 140 106 103 155 181 199 216 199 177 161
Wind_Speed
32 30 33 32 38 40 38 30 34 35 33 32 34 43 42 44 55 38 46 41 34 25 24 26 25 22 23 18 14 14 15 16 14 13 10 8 10 9 10 12 6 14 14 17 16
37 36 39 33 36 41 35 36 31 38 37 37 36 37 35 41 50 54 43 39 35 35 31 31 29 29 18 22 17 14 24 15 15 11 12 11 5 8 7 12 11 10 12 13 15
33 37 39 41 34 42 41 39 43 46 47 40 42 40 38 38 42 54 53 45 48 34 32 34 30 25 30 23 21 17 19 19 13 12 10 10 9 6 11 9 12 7 10 14 11
34 34 36 42 40 41 37 50 44 33 51 40 43 44 44 38 43 46 57 45 51 38 38 37 36 31 33 24 27 23 21 24 19 12 11 10 11 7 10 9 7 11 6 9 10
37 39 35 38 40 47 48 47 43 51 44 43 42 46 51 47 40 46 59 58 39 53 55 44 45 44 35 35 26 25 21 18 21 19 14 13 13 12 9 14 7 10 10 6 4
36 38 38 39 50 52 44 46 50 44 52 51 57 39 50 52 50 49 49 58 59 62 60 47 42 49 39 39 30 31 24 24 19 23 18 18 19 17 11 11 12 11 9 5 5
43 41 41 40 42 50 55 55 50 53 48 53 57 61 37 50 49 54 57 55 62 62 63 57 50 44 35 44 34 31 32 28 27 21 17 22 20 21 18 15 13 5 12 4 6
37 40 36 29 34 39 54 57 53 55 53 64 55 61 61 40 48 56 57 51 61 63 69 57 49 46 50 39 38 38 32 28 29 30 25 23 27 25 22 15 13 12 9 9 5
49 50 44 37 35 37 41 48 57 58 57 54 68 54 61 74 51 48 60 58 56 62 70 68 58 47 44 37 37 42 43 36 32 32 28 27 20 28 21 16 13 9 10 8 6
41 51 44 36 35 30 35 41 48 53 62 53 60 72 66 49 67 60 42 59 60 65 67 63 68 68 41 59 47 45 41 41 31 27 31 25 27 23 20 21 17 16 11 9 7
35 55 45 41 37 28 30 37 40 46 59 62 59 65 74 59 63 73 46 45 62 58 68 70 63 77 65 37 45 36 44 45 37 38 36 32 29 27 24 26 21 18 15 13 13
43 51 54 48 36 34 29 31 38 44 51 55 67 61 75 71 85 67 58 72 53 72 58 69 69 80 81 58 56 49 45 49 44 43 41 39 31 25 26 23 22 22 20 16 16
49 46 55 46 47 32 33 34 38 45 48 56 66 62 71 80 81 79 72 58 73 64 72 68 79 76 81 60 65 45 48 48 47 45 44 40 34 38 33 27 25 20 19 18 18
57 45 40 43 33 40 34 36 39 45 50 54 58 63 66 76 82 83 93 77 85 55 69 75 73 76 74 79 56 66 50 54 47 45 53 37 29 27 29 31 32 26 23 21 21
69 61 55 45 33 28 29 35 39 43 54 54 58 60 65 69 82 82 88 79 69 87 52 73 70 77 77 78 70 80 72 52 47 44 53 42 46 39 35 38 40 17 19 26 26
70 65 61 60 39 31 30 33 44 51 56 63 66 69 68 72 77 87 91 92 98 76 85 55 70 72 80 82 89 79 78 64 51 51 49 49 42 40 40 40 39 34 31 15 24
55 61 58 45 38 36 40 43 46 55 63 69 72 76 78 76 78 79 84 92 94 86 73 92 57 78 74 84 85 91 74 75 63 62 60 51 51 51 51 45 51 44 40 30 27
70 59 51 40 40 43 44 53 13 15 12 34 37 82 83 82 83 81 83 85 96 94 85 77 76 57 57 77 90 88 91 79 80 75 68 63 45 49 50 48 62 42 42 34 41
79 53 41 41 46 48 26 9 10 23 31 35 33 19 17 90 88 87 84 84 87 90 82 91 83 86 59 45 74 90 89 90 90 82 70 76 48 56 57 56 48 47 48 45 38
48 44 41 46 47 40 18 22 26 24 25 18 21 16 23 29 92 89 87 93 89 92 96 91 80 81 64 56 48 66 92 95 96 92 83 75 68 24 59 56 33 43 38 44 47
50 41 44 47 48 39 10 25 29 31 14 13 17 9 34 45 46 92 87 95 95 90 89 95 85 71 69 71 79 66 78 33 102 100 89 81 72 69 71 61 55 51 45 42 51
38 39 44 49 50 20 24 19 12 13 12 15 16 23 19 48 31 64 95 89 101 96 96 93 90 89 84 75 73 87 82 77 99 103 98 77 78 80 71 61 64 54 54 60 39
36 39 41 46 50 17 30 23 10 15 11 16 12 12 22 21 35 42 39 90 99 99 96 94 90 89 90 83 83 65 84 95 72 99 105 108 87 72 69 66 60 46 69 57 47
33 38 40 42 47 21 16 9 8 18 16 19 21 17 25 14 46 56 64 71 70 99 100 98 69 95 89 41 80 106 68 72 89 83 96 109 100 95 73 69 71 61 63 75 43
32 37 38 39 49 39 5 5 5 22 17 23 21 19 28 28 22 40 50 53 49 63 71 67 101 96 97 101 34 84 79 73 67 86 79 40 96 93 96 92 78 68 71 66 66
32 37 36 41 43 38 4 6 4 11 22 25 23 24 29 32 29 34 40 46 42 36 63 75 73 103 105 67 96 80 87 68 71 92 68 32 47 78 89 49 96 90 90 85 79
32 36 34 38 43 37 20 1 2 6 9 29 26 26 28 31 31 36 35 39 34 34 43 53 63 72 101 93 93 104 115 88 78 83 78 66 47 50 69 83 90 93 97 95 87
Wind_Direction
259 256 253 251 244 241 237 251 244 241 235 235 232 231 229 223 222 226 225 219 219 214 206 208 189 207 176 194 175 184 190 172 176 164 198 157 155 97 100 102 111 73 76 89 61
270 265 252 252 248 238 241 243 250 239 240 235 234 235 229 229 224 224 227 221 218 221 218 217 209 182 198 196 207 192 210 186 176 173 183 163 157 128 142 100 116 105 95 74 67
281 279 270 264 250 242 239 239 237 235 232 236 235 233 235 228 227 224 222 224 218 221 221 218 212 205 198 205 208 194 205 205 196 186 188 193 209 195 117 104 103 135 108 104 71
289 278 270 265 259 251 244 235 237 247 232 240 235 233 233 231 228 227 225 225 223 218 223 221 216 206 207 207 200 198 201 204 205 204 195 190 198 167 123 159 168 102 138 111 94
284 283 288 260 262 249 249 245 240 234 239 236 240 233 229 231 225 228 221 222 220 221 219 222 219 222 210 215 202 193 199 199 210 214 209 200 201 194 164 172 149 135 87 112 112
293 281 278 276 255 250 251 249 244 240 237 235 230 239 232 229 225 226 227 223 223 219 219 222 220 219 221 218 197 188 199 205 195 214 209 212 214 202 194 149 160 168 127 95 152
290 287 284 286 269 257 250 243 243 244 240 238 233 230 238 235 227 225 221 222 222 222 221 220 222 220 211 229 208 198 217 196 201 202 194 215 220 207 191 179 177 95 165 125 50
306 293 303 269 270 263 250 246 229 232 238 229 235 232 229 235 230 227 223 224 221 219 221 220 226 216 223 216 220 221 204 202 205 202 210 216 219 213 212 216 190 175 159 189 172
294 293 311 307 287 269 254 248 242 233 234 232 226 235 232 226 227 230 225 221 221 221 221 221 225 225 220 193 221 222 200 206 201 208 205 211 203 234 216 217 207 178 188 185 202
332 293 320 292 302 274 256 251 246 237 236 231 229 224 234 238 228 226 230 225 222 220 219 216 220 222 220 221 213 213 208 208 210 206 208 202 223 218 207 215 213 215 197 193 216
316 292 337 324 312 278 255 243 242 242 234 234 236 226 232 235 232 225 233 229 223 225 218 220 215 220 225 217 208 202 221 221 209 212 207 210 205 217 206 218 224 224 220 216 216
314 299 294 302 307 294 268 246 236 234 234 227 225 226 222 229 218 228 229 221 225 221 225 217 218 217 221 223 222 221 215 219 209 214 212 211 207 215 221 199 223 227 216 226 232
334 326 336 310 298 290 278 254 243 242 234 232 225 225 224 222 221 221 227 230 223 226 219 220 218 217 220 222 221 205 217 214 210 208 216 206 213 217 214 201 209 216 227 225 251
339 315 319 328 313 292 272 263 250 241 238 234 229 228 224 221 223 219 218 225 222 227 223 219 222 220 217 219 223 225 223 224 216 214 221 203 218 206 202 211 225 220 239 225 231
331 327 329 329 312 301 271 263 259 246 237 235 235 232 228 225 223 219 219 226 225 220 228 224 221 219 218 217 219 222 225 225 215 208 225 212 213 216 210 216 225 214 224 236 207
332 325 327 329 302 301 283 263 250 249 246 234 230 230 232 227 225 221 218 217 217 223 218 228 221 222 218 217 216 221 222 225 224 223 221 219 213 206 216 215 222 215 232 298 223
337 330 330 324 314 305 293 281 266 253 243 241 235 227 227 225 227 226 224 216 216 224 223 220 224 220 222 218 218 218 222 221 229 229 227 215 219 224 220 221 217 210 227 203 229
336 332 328 320 313 308 297 293 287 250 193 240 246 232 229 225 223 224 225 223 216 217 225 223 222 225 218 224 218 218 218 220 224 228 229 226 210 223 218 223 234 217 222 222 237
335 335 324 321 321 316 316 290 236 253 259 251 252 239 182 227 224 222 220 224 223 220 221 223 220 220 223 217 223 216 217 218 224 225 228 227 219 219 219 211 209 210 218 228 229
334 330 329 327 324 320 318 307 298 290 263 227 226 207 170 190 225 222 217 220 221 222 219 221 221 219 223 223 220 223 217 217 223 227 226 227 226 230 231 230 213 218 218 227 228
335 333 330 328 329 337 302 275 287 286 244 192 199 207 184 212 196 219 220 217 221 221 224 223 221 217 220 223 222 221 222 235 220 225 225 223 225 227 232 226 230 222 225 224 227
331 338 332 332 334 335 332 303 258 222 234 200 183 175 188 194 199 204 220 217 219 219 218 224 221 218 218 218 219 220 222 227 219 221 227 225 223 223 229 225 231 233 233 233 232
334 338 338 339 339 346 307 297 228 219 229 183 180 172 175 172 172 199 178 216 219 221 223 225 222 222 216 220 221 223 222 224 227 222 225 228 219 224 232 236 230 218 235 232 228
337 339 337 341 342 337 258 270 250 209 202 196 197 161 176 170 183 196 193 207 213 220 221 223 220 222 221 214 216 219 222 222 222 227 227 232 227 224 230 236 232 232 236 233 235
340 336 336 345 346 351 250 274 258 202 200 191 206 183 187 186 183 189 194 202 207 205 208 209 221 219 220 219 228 220 223 228 228 230 227 204 226 225 226 230 232 235 237 236 237
337 337 342 344 347 2 343 216 226 207 197 195 210 185 194 196 190 184 202 208 209 215 207 212 210 219 222 221 216 221 222 222 228 229 233 209 217 223 226 224 231 231 234 236 238
336 335 343 344 349 8 16 302 163 209 196 192 203 209 198 195 192 190 199 202 203 199 207 211 214 217 224 222 221 218 220 222 223 228 226 226 232 245 226 227 232 233 232 233 234